[Date Prev][Date Next][Thread Prev][Thread Next] - [Date Index][Thread Index][Author Index]
2 Line ISS Keps 6-19
- Subject: [sarex] 2 Line ISS Keps 6-19
- From: "Dave Larsen PhD" <doc@xxxxxxxxxxx>
- Date: Sat, 19 Jun 2004 04:48:17 -0700
ISS
1 25544U 98067A 04171.44948873 .00015470 00000-0 13517-3 0 257
2 25544 51.6330 314.2082 0005262 254.1593 215.9715 15.69140549318673
----
Via the sarex mailing list at AMSAT.ORG courtesy of AMSAT-NA.
To unsubscribe, send "unsubscribe sarex" to Majordomo@amsat.org
AMSAT Home